Showing default

TBA - TO BE ASSIGNED, 64496

Orbit data source: Space-Track

TBA - TO BE ASSIGNED named objects are likely recently launched satellites that are being tracked but not necessarily identified.

Not visible in the next 10 days
Identifier
64496, 2025-133AA
Orbit
LEO
Last TLE update
12 hours ago
Origin
Manufacturer
SpaceX/Seattle
Mission
Operational spacecraft
Bus & Motor
STARLINK V2MO, Unknown motor
Mass
575 kg wet, ~530 kg dry
Launch date (UTC)
2025-06-23 (1 week ago)
Launch vehicle
FALCON 9
Launch site
Air Force Eastern Test Range (AFETR)
Object type
Payload
Rocket body
Debris
Shape & HBR
Unknown
Radar Cross Section
RCS unknown

Expand to show TLE details & history

TLE from 12 hours ago
0 STARLINK-34268
1 64496U 25133AA  25181.91668981 -.01240421  00000-0 -48489-2 0  9999
2 64496  53.1554 219.1629 0000818  82.9256 142.4967 15.88714557  2458
Epoch: 2025-06-30T22:00Z
TLE epoch observation values (Epoch: 2025-06-30T22:00:01.999Z)
Latitude
-34.9697°
Longitude
-178.6573°
Altitude
317.426 km
Speed
7.717 km/s
True Right ascension
04h 42m 16s
True Declination
-34° 47' 52"
Sunlit
Object was in daylight at epoch
Visualization orbit readout
Latitude
-33.95083°
Longitude
177.49354°
Altitude
320.851 km
Speed
7.715 km/s
Apparent Right ascension
06h 52m 59s
Apparent Declination
-43° 57' 28"
Sunlit
Object is in daylight
Visualization observer readout
Local Sidereal Time
21:43:03
Azimuth
111.53° ESE
Elevation
-58.468°
Doppler factor
1
Orbital elements
Apogee altitude
306.696 km
Perigee altitude
305.603 km
Semi-major axis
6,684.286 km
Eccentricity
0.00008
Inclination
53.1554°
RAAN
219.1629°
Arg. of periapsis
82.9256°
True anomaly
Unknown
Mean anomaly
142.4967°
Eccentric anomaly
Unknown
Mean motion
3.97156 °/min
Orbital period
90.64 mins
BSTAR
-0.0048489
Loading maneuver chart data...
Loading SW <> Apogee altitude chart data...

TBA - TO BE ASSIGNED Visibility

Observer location: undefined°, undefined°

TBA - TO BE ASSIGNED is likely not visible in the next few days
Span
Click to sort rows by Start time (UTC) header in descending order
Start Az.
Max El. time (UTC)
Max El. Az.
Max El.
End time (UTC)
End Az.
|